Location: Keewatin
(47.4004°N, 93.0827°W)
Time: 06:55:27
(UTC+00:00)

Envisat - Pass Details

Date: 17 December 2019
Orbit: 764 x 766 km, 98.1° (Epoch: 20 January)

Event Time Altitude Azimuth Distance (km) Brightness Sun altitude
Rises 23:54:07 0° 162° (SSE) 3,221 6.2 -14.7°
Reaches altitude 10° 23:56:24 10° 161° (SSE) 2,299 5.5 -15.1°
Maximum altitude 00:01:29 83° 74° (ENE) 778 2.9 -15.9°
Drops below altitude 10° 00:06:36 10° 348° (NNW) 2,315 5.4 -16.7°
Sets 00:08:55 0° 348° (NNW) 3,246 6.2 -17.1°
